Cozumel, Mexico

4:12 PM EST on August 22, 2017 (GMT -0500)
Cozumel

Weather History for MMCZ - April, 2013

Change the Weather History Date:

Tuesday, April 16, 2013

  Actual Average Record
Temperature  
Mean Temperature 80 °F -  
Max Temperature 86 °F 86 °F 91 °F (1999)
Min Temperature 75 °F 74 °F 66 °F (2009)
Cooling Degree Days 16    
Growing Degree Days 30 (Base 50)    
Moisture  
Dew Point 73 °F    
Average Humidity 83    
Maximum Humidity 94    
Minimum Humidity 66    
Precipitation  
Precipitation 0.00 in - - ()
Sea Level Pressure  
Sea Level Pressure 29.96 in    
Wind  
Wind Speed 12 mph ()    
Max Wind Speed 18 mph    
Max Gust Speed 24 mph    
Visibility 7.5 miles    
Events      
Averages and records for this station are not official NWS values.
T = Trace of Precipitation, MM = Missing Value Source: Averaged Metar Reports

Daily Weather History Graph

Daily Weather History Graph

Search for Another Location

Airport or City:

Trip Planner

Search our weather history database for the weather conditions in past years. The results will help you decide how hot, cold, wet, or windy it might be!

Date:

Astronomy

Apr. 16, 2013 Rise Set
Actual Time 6:28 AM CDT 7:06 PM CDT
Civil Twilight 6:05 AM CDT 7:29 PM CDT
Nautical Twilight 5:39 AM CDT 7:55 PM CDT
Astronomical Twilight 5:12 AM CDT 8:22 PM CDT
Moon 11:05 AM CDT (4/16) No Moon Set
Length of Visible Light 13h 23m
Length of Day
12h 38m
Waxing Crescent, 33% of the Moon is Illuminated
Apr 16
Waxing Crescent
Apr 18
First Quarter
Apr 25
Full
May 2
Last Quarter
May 9
New

Hourly Weather History & Observations

Time (CDT) Temp. Heat Index Dew Point Humidity Pressure Visibility Wind Dir Wind Speed Gust Speed Precip Events Conditions
12:42 AM 75.2 °F - 73.4 °F 94% 29.91 in 7.0 mi SE 16.1 mph - N/A   Partly Cloudy
2:11 AM 75.2 °F - 71.6 °F 89% 29.92 in 7.0 mi SE 13.8 mph - N/A   Partly Cloudy
2:42 AM 75.2 °F - 73.4 °F 94% 29.92 in 7.0 mi ESE 2.3 mph - N/A   Partly Cloudy
3:51 AM 75.2 °F - 73.4 °F 94% 29.94 in 7.0 mi SE 9.2 mph - N/A   Scattered Clouds
4:40 AM 75.2 °F - 73.4 °F 94% 29.91 in 7.0 mi SE 15.0 mph - N/A   Scattered Clouds
5:43 AM 75.2 °F - 71.6 °F 89% 29.93 in 7.0 mi ESE 12.7 mph - N/A   Scattered Clouds
6:40 AM 75.2 °F - 71.6 °F 89% 29.91 in 7.0 mi ESE 9.2 mph - N/A   Scattered Clouds
7:45 AM 77.0 °F - 73.4 °F 89% 29.97 in 8.0 mi ESE 16.1 mph - N/A   Scattered Clouds
8:40 AM 78.8 °F - 73.4 °F 83% 29.98 in 8.0 mi SE 16.1 mph - N/A   Mostly Cloudy
9:51 AM 80.6 °F 85.4 °F 73.4 °F 79% 30.02 in 8.0 mi SE 12.7 mph 24.2 mph N/A   Mostly Cloudy
10:46 AM 80.6 °F 85.4 °F 73.4 °F 79% 30.00 in 8.0 mi SE 15.0 mph - N/A   Mostly Cloudy
11:43 AM 82.4 °F 88.2 °F 73.4 °F 74% 30.00 in 8.0 mi SE 13.8 mph - N/A   Mostly Cloudy
12:50 PM 84.2 °F 90.9 °F 73.4 °F 70% 29.95 in 8.0 mi ESE 13.8 mph - N/A   Mostly Cloudy
1:50 PM 84.2 °F 89.6 °F 71.6 °F 66% 29.95 in 8.0 mi ESE 17.3 mph - N/A   Scattered Clouds
2:40 PM 86.0 °F 95.1 °F 75.2 °F 70% 29.94 in 8.0 mi SSE 16.1 mph - N/A   Scattered Clouds
3:52 PM 82.4 °F 88.2 °F 73.4 °F 74% 29.95 in 8.0 mi ESE 18.4 mph - N/A   Scattered Clouds
4:45 PM 80.6 °F 84.6 °F 71.6 °F 74% 29.92 in 8.0 mi ESE 16.1 mph - N/A   Scattered Clouds
5:44 PM 80.6 °F 84.6 °F 71.6 °F 74% 29.93 in 8.0 mi ESE 18.4 mph - N/A   Scattered Clouds
6:52 PM 78.8 °F - 71.6 °F 78% 29.92 in 8.0 mi ESE 13.8 mph - N/A   Scattered Clouds
7:41 PM 77.0 °F - 71.6 °F 83% 29.96 in 7.0 mi ESE 13.8 mph - N/A   Partly Cloudy
8:41 PM 75.2 °F - 71.6 °F 89% 29.98 in 7.0 mi ESE 11.5 mph - N/A   Partly Cloudy
9:43 PM 75.2 °F - 71.6 °F 89% 30.02 in 7.0 mi ESE 8.1 mph - N/A   Partly Cloudy
10:58 PM 75.2 °F - 71.6 °F 89% 30.00 in 7.0 mi ESE 10.4 mph - N/A   Partly Cloudy
11:47 PM 75.2 °F - 71.6 °F 89% 29.99 in 7.0 mi East 8.1 mph - N/A   Partly Cloudy